Gastonia, NC

3:58 PM EDT on July 23, 2016 (GMT -0400)
Gastonia Municipal

Weather History for KAKH - December, 2013

Change the Weather History Date:

Saturday, December 7, 2013

  Actual Average (KCLT) Record (KCLT)
Temperature  
Mean Temperature 58 °F 44 °F  
Max Temperature 68 °F 55 °F 76 °F (1998)
Min Temperature 46 °F 33 °F 12 °F (2010)
Degree Days  
Heating Degree Days 7 21  
Month to date heating degree days 140  
Since 1 July heating degree days 776  
Cooling Degree Days 0 0  
Month to date cooling degree days 0  
Year to date cooling degree days 1517  
Growing Degree Days 8 (Base 50)    
Moisture  
Dew Point 52 °F    
Average Humidity 84    
Maximum Humidity 100    
Minimum Humidity 67    
Precipitation  
Precipitation 0.08 in 0.10 in 1.56 in (1890)
Month to date precipitation 0.76  
Year to date precipitation 39.14  
Snow  
Snow 0.00 in 0.00 in T in (1968)
Month to date snowfall 0.0  
Since 1 July snowfall 0.1  
Snow Depth -    
Sea Level Pressure  
Sea Level Pressure 30.20 in    
Wind  
Wind Speed 8 mph (NE)    
Max Wind Speed 21 mph    
Max Gust Speed 28 mph    
Visibility 9 miles    
Events Rain    
T = Trace of Precipitation, MM = Missing Value Source: NWS Daily Summary

Daily Weather History Graph

Daily Weather History Graph

Search for Another Location

Airport or City:

Trip Planner

Search our weather history database for the weather conditions in past years. The results will help you decide how hot, cold, wet, or windy it might be!

Date:

Astronomy

Dec. 07, 2013 Rise Set
Actual Time 7:20 AM EST 5:12 PM EST
Civil Twilight 6:52 AM EST 5:40 PM EST
Nautical Twilight 6:20 AM EST 6:11 PM EST
Astronomical Twilight 5:49 AM EST 6:42 PM EST
Moon 11:11 AM EST (12/7) 10:43 PM EST (12/7)
Length of Visible Light 10h 48m
Length of Day
9h 52m
Waxing Crescent, 29% of the Moon is Illuminated
Dec 7
Waxing Crescent
Dec 9
First Quarter
Dec 17
Full
Dec 25
Last Quarter
Jan 1
New

Hourly Weather History & Observations

Time (EST) Temp. Dew Point Humidity Pressure Visibility Wind Dir Wind Speed Gust Speed Precip Events Conditions
12:54 AM 68.0 °F 63.0 °F 84% 30.01 in 6.0 mi SSW 9.2 mph 18.4 mph 0.00 in Rain Light Rain
1:54 AM 66.0 °F 64.0 °F 93% 30.01 in 10.0 mi Calm Calm - 0.01 in Rain Light Rain
2:35 AM 66.2 °F 64.4 °F 94% 30.01 in 4.0 mi SW 5.8 mph - 0.04 in Rain Rain
2:54 AM 66.0 °F 64.0 °F 93% 30.00 in 10.0 mi SSW 5.8 mph - 0.04 in Rain Light Rain
3:15 AM 66.2 °F 64.4 °F 94% 30.02 in 10.0 mi SSW 5.8 mph - 0.00 in   Mostly Cloudy
3:31 AM 64.4 °F 64.4 °F 100% 30.02 in 10.0 mi SSW 4.6 mph - 0.00 in   Mostly Cloudy
3:54 AM 66.0 °F 64.9 °F 96% 30.02 in 10.0 mi SW 4.6 mph - 0.00 in   Overcast
4:36 AM 66.2 °F 64.4 °F 94% 30.05 in 10.0 mi WSW 4.6 mph - 0.01 in Rain Light Rain
4:54 AM 66.0 °F 64.9 °F 96% 30.05 in 10.0 mi Calm Calm - 0.01 in   Overcast
5:13 AM 66.2 °F 64.4 °F 94% 30.06 in 10.0 mi Variable 3.5 mph - N/A   Overcast
5:54 AM 64.9 °F 63.0 °F 93% 30.08 in 10.0 mi West 3.5 mph - N/A   Overcast
6:11 AM 64.4 °F 62.6 °F 94% 30.10 in 7.0 mi North 6.9 mph - 0.00 in Rain Light Rain
6:20 AM 62.6 °F 62.6 °F 100% 30.10 in 5.0 mi North 4.6 mph - 0.00 in Rain Light Rain
6:34 AM 62.6 °F 62.6 °F 100% 30.12 in 9.0 mi NNE 6.9 mph - 0.00 in   Overcast
6:54 AM 63.0 °F 61.0 °F 93% 30.12 in 7.0 mi NNE 5.8 mph - 0.00 in Rain Light Rain
7:41 AM 60.8 °F 59.0 °F 94% 30.16 in 2.0 mi NE 11.5 mph 20.7 mph 0.01 in Rain Light Rain
7:54 AM 57.9 °F 57.0 °F 97% 30.17 in 1.8 mi NE 16.1 mph - 0.02 in Rain Light Rain
8:21 AM 53.6 °F 51.8 °F 94% 30.20 in 2.0 mi NE 20.7 mph 26.5 mph 0.00 in Rain Light Rain
8:26 AM 53.6 °F 51.8 °F 94% 30.20 in 3.0 mi NE 16.1 mph 27.6 mph 0.00 in Rain Light Rain
8:43 AM 53.6 °F 51.8 °F 94% 30.22 in 5.0 mi NE 10.4 mph 18.4 mph 0.00 in   Overcast
8:54 AM 53.1 °F 51.1 °F 93% 30.22 in 5.0 mi NE 13.8 mph - 0.00 in   Overcast
9:38 AM 51.8 °F 50.0 °F 94% 30.25 in 10.0 mi ENE 12.7 mph - N/A   Overcast
9:54 AM 52.0 °F 48.0 °F 86% 30.26 in 10.0 mi NE 16.1 mph 23.0 mph N/A   Overcast
10:02 AM 51.8 °F 48.2 °F 88% 30.26 in 10.0 mi ENE 10.4 mph 20.7 mph N/A   Overcast
10:16 AM 51.8 °F 46.4 °F 82% 30.28 in 10.0 mi NE 18.4 mph 27.6 mph N/A   Overcast
10:54 AM 52.0 °F 46.9 °F 83% 30.28 in 10.0 mi East 11.5 mph - N/A   Overcast
11:23 AM 53.6 °F 46.4 °F 77% 30.28 in 10.0 mi ENE 12.7 mph - N/A   Overcast
11:36 AM 53.6 °F 46.4 °F 77% 30.28 in 10.0 mi NE 10.4 mph - N/A   Overcast
11:54 AM 53.1 °F 46.0 °F 77% 30.27 in 10.0 mi NNE 15.0 mph - N/A   Overcast
12:43 PM 53.6 °F 44.6 °F 72% 30.27 in 10.0 mi NE 11.5 mph - N/A   Overcast
12:54 PM 53.1 °F 45.0 °F 74% 30.27 in 10.0 mi NE 10.4 mph - N/A   Overcast
1:38 PM 53.6 °F 44.6 °F 72% 30.27 in 10.0 mi ENE 10.4 mph - N/A   Overcast
1:54 PM 53.1 °F 45.0 °F 74% 30.26 in 10.0 mi ENE 11.5 mph 18.4 mph N/A   Overcast
2:03 PM 53.6 °F 44.6 °F 72% 30.27 in 10.0 mi East 10.4 mph - N/A   Overcast
2:28 PM 53.6 °F 42.8 °F 67% 30.27 in 10.0 mi NE 11.5 mph - N/A   Overcast
2:54 PM 53.1 °F 43.0 °F 69% 30.27 in 10.0 mi NE 8.1 mph - N/A   Overcast
3:54 PM 52.0 °F 43.0 °F 71% 30.28 in 10.0 mi ENE 10.4 mph - N/A   Overcast
4:54 PM 52.0 °F 42.1 °F 69% 30.30 in 10.0 mi ENE 9.2 mph - N/A   Overcast
5:54 PM 51.1 °F 41.0 °F 68% 30.32 in 10.0 mi NE 9.2 mph - N/A   Overcast
6:54 PM 51.1 °F 41.0 °F 68% 30.34 in 10.0 mi NE 10.4 mph - N/A   Overcast
7:54 PM 50.0 °F 41.0 °F 71% 30.37 in 10.0 mi East 8.1 mph - N/A   Overcast
8:54 PM 48.9 °F 41.0 °F 74% 30.38 in 10.0 mi ENE 11.5 mph - N/A   Overcast
9:54 PM 48.0 °F 39.9 °F 74% 30.39 in 10.0 mi ENE 11.5 mph - N/A   Overcast
10:54 PM 48.0 °F 37.9 °F 68% 30.41 in 10.0 mi ENE 11.5 mph - N/A   Overcast
11:54 PM 46.9 °F 37.0 °F 68% 30.40 in 10.0 mi ENE 10.4 mph 21.9 mph N/A   Overcast